Location: Ermatingen
(47.6706°N, 9.0857°E)
Time: 08:28:09
(UTC+00:00)

ERS-1 Rocket - Pass Details

Date: 18 September 2020
Orbit: 753 x 757 km, 98.5° (Epoch: 24 October)

Event Time Altitude Azimuth Distance (km) Brightness Sun altitude
Exits shadow 20:57:24 41° 348° (NNW) 1,096 4.1 -32.2°
Drops below altitude 10° 21:00:38 10° 347° (NNW) 2,295 6.1 -32.6°
Sets 21:02:56 0° 347° (NNW) 3,225 7.1 -32.8°
